This demonstration page uses our WeatherBlox Daily Observations layout. Learn more.

Left ArrowRight Arrow

Hourly Observations for March 12, 2019

Temp ( °F °C ) Dew Point ( °F °C ) Humidity (%) Winds ( mph kmh ) Pressure ( in mb ) Visibility ( mi km ) Precip ( " mm )
12:51 am 00:51 Cloudy with Light Rain 59 15 52 11.1 78 78 SE 8 13 29.72 1006 10 16 0.01 0.25
1:51 am 01:51 Mostly Cloudy 57 13.9 51 10.6 81 81 NE 5 7 29.70 1006 10 16 N/A
2:51 am 02:51 Cloudy 58 14.4 49 9.4 72 72 ESE 8 13 29.67 1005 10 16 N/A
3:51 am 03:51 Cloudy 60 15.6 47 8.3 62 62 SE 16 26 29.62 1003 10 16 N/A
4:51 am 04:51 Partly Cloudy 59 15 46 7.8 62 62 SSE 18 30 29.62 1003 10 16 N/A
5:51 am 05:51 Mostly Clear 57 13.9 46 7.8 67 67 E 8 13 29.60 1003 10 16 N/A
6:51 am 06:51 Cloudy with Light Rain 55 12.8 48 8.9 77 77 SSE 6 9 29.64 1004 7 11 0.01 0.25
7:51 am 07:51 Cloudy with Rain 50 10 50 10 100 100 NNE 5 7 29.66 1004 3 5 0.17 4.32
7:58 am 07:58 Cloudy with Heavy Rain 50 10 50 10 100 100 W 6 9 29.72 1007 2 3 0.03 0.76
8:11 am 08:11 Cloudy with Rain 50 10 50 10 100 100 WSW 9 15 29.74 1007 2 3 0.09 2.29
8:21 am 08:21 Cloudy with Heavy Rain 49 9.4 49 9.4 100 100 W 6 9 29.74 1007 1 2 0.14 3.56
8:32 am 08:32 Cloudy with Rain 49 9.4 49 9.4 100 100 W 8 13 29.75 1007 2 2 0.20 5.08
8:43 am 08:43 Cloudy with Rain 49 9.4 48 8.9 97 97 W 8 13 29.75 1007 2 3 0.23 5.84
8:51 am 08:51 Mostly Cloudy with Rain 48 8.9 48 8.9 100 100 W 14 22 29.71 1006 3 4 0.25 6.35
9:01 am 09:01 Cloudy with Rain 48 8.9 47 8.3 96 96 NW 20 31 29.77 1008 3 5 0.03 0.76
9:14 am 09:14 Cloudy with Light Rain 48 8.9 47 8.3 96 96 NW 20 31 29.77 1008 4 6 0.06 1.52
9:51 am 09:51 Cloudy with Light Rain 48 8.9 47 8.3 96 96 WNW 17 28 29.71 1006 10 16 0.09 2.29
9:58 am 09:58 Cloudy 48 9 46 8 94 94 NW 23 37 29.77 1008 10 16 N/A
10:51 am 10:51 Cloudy with Light Rain 47 8.3 45 7.2 93 93 NW 21 33 29.73 1007 6 10 0.05 1.27
11:51 am 11:51 Cloudy 49 9.4 43 6.1 80 80 N N/A 29.75 1008 10 16 0.06 1.52
12:51 pm 12:51 Cloudy 50 10 45 7.2 83 83 ESE 15 24 29.65 1004 10 16 0.01 0.25
1:51 pm 13:51 Cloudy 51 10.6 42 5.6 71 71 E 14 22 29.62 1003 10 16 N/A
2:51 pm 14:51 Cloudy 51 10.6 42 5.6 71 71 ESE 13 20 29.61 1003 10 16 N/A
3:51 pm 15:51 Mostly Cloudy 55 12.8 43 6.1 64 64 SSE 15 24 29.60 1002 10 16 N/A
4:51 pm 16:51 Cloudy 51 10.6 45 7.2 80 80 SW 10 17 29.62 1003 10 16 0.01 0.25
5:51 pm 17:51 Cloudy 50 10 42 5.6 74 74 WNW 8 13 29.65 1004 10 16 N/A
6:51 pm 18:51 Mostly Cloudy 48 8.9 41 5 77 77 N N/A 29.67 1005 10 16 0.02 0.51
7:51 pm 19:51 Partly Cloudy 47 8.3 41 5 80 80 SW 5 7 29.68 1005 10 16 N/A
8:51 pm 20:51 Cloudy 47 8.3 43 6.1 86 86 S 6 9 29.70 1006 10 16 N/A
9:51 pm 21:51 Cloudy with Light Rain 47 8.3 44 6.7 90 90 SSE 6 9 29.70 1006 9 14 N/A
10:51 pm 22:51 Cloudy 46 7.8 44 6.7 93 93 E 5 7 29.70 1006 10 16 N/A
11:51 pm 23:51 Cloudy 47 8.3 42 5.6 83 83 N N/A 29.68 1005 10 16 N/A
11:58 pm 23:58 Cloudy 46 8 43 6 87 87 N N/A 29.74 1007 10 16 N/A

Powered by AerisWeather